[[{"header":{"parameterUnit":"m.s-1","parameterCategory":1,"la1":30.2991,"la2":30.254,"lo1":-89.0895,"lo2":-89.0444,"dy":0.0017,"dx":0.0017,"nx":28,"ny":28,"refTime":"2024-04-07T21:00:00:Z","depth":0,"parameterNumber":2,"parameterNumberName":"U-component_of_WINDS"},"data":[0,0,0,0,0,0,0,0,0,0,0,0,0,0,0,0,0,0,0,0,0,0,0,0,0,0,0,0,0,0,0,0,0,0,0,0,0,0,0,0,0,0,0,0,0,0,0,0,0,0,0,0,0,0,0,0,0,0,-5.5187,-5.5188,0,-5.5262,-5.5263,-5.5264,-5.5207,-5.5205,-5.5202,-5.52,-5.5277,-5.5282,-5.5286,0,0,0,0,0,0,0,0,0,0,0,0,0,-5.4997,-5.5001,-5.5187,-5.5188,-5.5189,-5.5262,-5.5263,-5.5264,-5.5208,-5.5205,-5.5202,-5.5199,-5.5276,-5.5281,-5.5286,0,0,0,0,0,0,0,0,0,0,0,0,0,-5.5076,-5.5002,-5.5187,-5.517,-5.5169,-5.5262,-5.5263,-5.5264,-5.5208,-5.5204,-5.5201,-5.5197,-5.5274,-5.5281,-5.5287,-5.5401,0,0,-5.5307,-5.531,0,0,0,0,0,0,0,0,-5.5072,-5.5084,-5.5171,-5.5171,-5.517,-5.5221,-5.5224,-5.531,-5.5209,-5.5193,-5.52,-5.5195,-5.5262,-5.5269,-5.5291,-5.5405,-5.5408,-5.5308,-5.5312,-5.5314,-5.5316,0,0,0,0,0,0,0,-5.5067,-5.508,-5.5217,-5.5173,-5.5172,-5.5159,-5.5166,-5.524,-5.5247,-5.5194,-5.519,-5.52,-5.5261,-5.5285,-5.5293,-5.541,-5.5307,-5.5313,-5.5317,-5.532,-5.5621,-5.5625,0,0,0,0,0,0,-5.5063,-5.5076,-5.5214,-5.5219,-5.5111,-5.5165,-5.5173,-5.5209,-5.5246,-5.5249,-5.5203,-5.5197,-5.5276,-5.5285,-5.5295,-5.543,-5.5314,-5.532,-5.5324,-5.5617,-5.5622,-5.5626,0,0,0,0,0,0,-5.5059,-5.5075,-5.5211,-5.5146,-5.5163,-5.5172,-5.5213,-5.5212,-5.5236,-5.5253,-5.5254,-5.5226,-5.5273,-5.5286,-5.5375,-5.5432,-5.5323,-5.5329,-5.5612,-5.5618,-5.5624,-5.5703,0,0,0,0,0,0,-5.5053,-5.5074,-5.5117,-5.5148,-5.5166,-5.529,-5.5216,-5.5216,-5.5248,-5.5241,-5.5275,-5.5277,-5.5271,-5.5366,-5.5382,-5.5439,-5.5334,-5.5607,-5.5615,-5.5622,-5.5695,-5.5711,-5.5724,0,0,0,0,0,-5.5047,-5.5137,-5.512,-5.5137,-5.522,-5.5293,-5.5304,-5.5295,-5.5253,-5.5296,-5.5307,-5.5276,-5.5425,-5.5376,-5.5393,-5.5453,-5.5603,-5.5613,-5.5622,-5.5688,-5.5708,-5.5724,0,0,0,0,0,0,-5.5112,-5.514,-5.5122,-5.5224,-5.5257,-5.5284,-5.5338,-5.5316,-5.5361,-5.5352,-5.534,-5.5348,-5.5442,-5.5457,-5.5402,-5.5566,-5.5507,-5.552,-5.5552,-5.557,-5.5585,-5.5578,-5.534,0,0,0,0,0,-5.5139,-5.5196,-5.5217,-5.5305,-5.5323,-5.5328,-5.5359,-5.535,-5.5383,-5.5397,-5.5414,-5.5448,-5.5502,-5.5538,-5.5588,-5.5698,-5.5705,-5.5749,-5.5764,-5.5775,-5.5786,-5.5844,-5.5864,-5.5656,-5.5656,-5.5656,0,0,-5.5194,-5.5216,-5.5253,-5.5319,-5.5343,-5.5402,-5.534,-5.5405,-5.5448,-5.5407,-5.5491,-5.5506,-5.5543,-5.5643,-5.5688,-5.5658,-5.5845,-5.5787,-5.5797,-5.58,-5.5856,-5.5876,-5.5893,-5.5663,-5.5661,-5.566,0,0,-5.5323,-5.5347,-5.5422,-5.5448,-5.5486,-5.5489,-5.5507,-5.5538,-5.5546,-5.5631,-5.5601,-5.5653,-5.5747,-5.5774,-5.58,-5.5943,-5.5916,-5.5961,-5.6036,-5.6093,-5.6109,-5.6124,-5.6173,-5.6191,-5.5972,-5.5972,-5.5972,0,-5.5386,-5.5473,-5.5464,-5.5531,-5.5561,-5.5527,-5.5604,-5.563,-5.5682,-5.5704,-5.5671,-5.5788,-5.5811,-5.5916,-5.5951,-5.5974,-5.5994,-5.5955,-5.6108,-5.6122,-5.6135,-5.6182,-5.6201,-5.5977,-5.5976,-5.5976,-5.5975,0,-5.5549,-5.561,-5.5667,-5.5718,-5.5755,-5.5827,-5.5828,-5.5867,-5.5856,-5.5863,-5.595,-5.5977,-5.6032,-5.6057,-5.6047,-5.6162,-5.6142,-5.6109,-5.6049,-5.616,-5.6204,-5.6222,-5.5984,-5.5982,-5.5981,-5.598,0,0,-5.5718,-5.5764,-5.5785,-5.5808,-5.5848,-5.5895,-5.5967,-5.6021,-5.6053,-5.6092,-5.6151,-5.6232,-5.6202,-5.6232,-5.6225,-5.6275,-5.6385,-5.6236,-5.6236,-5.626,-5.6512,-5.6534,-5.6555,-5.6369,-5.6373,-5.6375,-5.6508,0,-5.5847,-5.5969,-5.5964,-5.6078,-5.6135,-5.6105,-5.6167,-5.6198,-5.6208,-5.6257,-5.6268,-5.6325,-5.6282,-5.6299,-5.6349,-5.6361,-5.6435,-5.6352,-5.6422,-5.6425,-5.641,-5.6578,-5.6602,-5.6725,-5.6525,-5.6528,-5.653,0,-5.6014,-5.6057,-5.6177,-5.6209,-5.6233,-5.6288,-5.6338,-5.6386,-5.6422,-5.6425,-5.646,-5.6445,-5.6517,-5.6458,-5.6557,-5.6501,-5.653,-5.6541,-5.6546,-5.6549,-5.6482,-5.6584,-5.6765,-5.6782,-5.6557,-5.6555,-5.6553,0,-5.6122,-5.6212,-5.6294,-5.6315,-5.6356,-5.6395,-5.6414,-5.6446,-5.648,-5.6524,-5.6545,-5.6598,-5.6625,-5.6667,-5.6666,-5.6624,-5.6767,-5.6707,-5.677,-5.677,-5.6798,-5.6796,-5.6984,-5.6823,-5.6823,-5.6822,-5.6822,0,-5.6265,-5.6339,-5.6344,-5.6394,-5.6477,-5.6471,-5.6553,-5.6568,-5.6598,-5.6651,-5.663,-5.6681,-5.6679,-5.6731,-5.6731,-5.6813,-5.6826,-5.6831,-5.6829,-5.6831,-5.683,-5.6847,-5.6837,-5.6827,-5.6826,-5.6825,-5.6824,0,-5.6398,-5.6404,-5.6493,-5.6524,-5.6534,-5.6593,-5.662,-5.6669,-5.6678,-5.6746,-5.6761,-5.6775,-5.6835,-5.684,-5.691,-5.691,-5.7008,-5.6999,-5.6996,-5.6993,-5.7054,-5.7047,-5.7257,-5.7284,-5.7108,-5.711,-5.7112,0,-5.6487,-5.6543,-5.6581,-5.6615,-5.6636,-5.6692,-5.6726,-5.6724,-5.676,-5.6806,-5.6849,-5.6907,-5.6953,-5.7051,-5.7067,-5.7121,-5.7111,-5.7181,-5.7119,-5.7118,-5.7109,-5.7104,-5.7109,-5.7192,-5.7194,-5.7196,-5.7197,0,-5.6644,-5.6645,-5.6694,-5.6745,-5.6786,-5.6826,-5.6864,-5.6893,-5.6896,-5.6938,-5.6999,-5.7035,-5.7107,-5.7164,-5.7217,-5.7237,-5.7217,-5.7217,-5.7234,-5.7234,-5.7228,-5.723,-5.7025,-5.7211,-5.721,-5.7209,-5.7208,-5.7207,-5.6756,-5.6804,-5.6838,-5.6894,-5.6923,-5.6958,-5.7005,-5.7021,-5.7071,-5.7129,-5.7125,-5.7193,-5.7229,-5.7298,-5.7322,-5.7375,-5.7351,-5.7376,-5.7382,-5.7387,-5.7392,-5.7223,-5.7385,-5.7385,-5.7384,-5.7384,-5.7384,0,-5.6909,-5.693,-5.6982,-5.7035,-5.7079,-5.7059,-5.71,-5.7138,-5.7197,-5.7233,-5.7279,-5.7349,-5.7406,-5.7428,-5.7483,-5.7521,-5.7513,-5.7535,-5.7531,-5.7535,-5.7412,-5.739,-5.7541,-5.7541,-5.7541,-5.754,-5.754,-5.754,-5.6994,-5.7074,-5.7079,-5.7174,-5.7195,-5.726,-5.7285,-5.7318,-5.7346,-5.7426,-5.7472,-5.7487,-5.7517,-5.7574,-5.7626,-5.7631,-5.7651,-5.7676,-5.7677,-5.756,-5.7544,-5.7529,-5.7509,-5.7681,-5.7682,-5.7796,-5.7797,-5.7798]},{"header":{"parameterUnit":"m.s-1","parameterCategory":1,"la1":30.2991,"la2":30.254,"lo1":-89.0895,"lo2":-89.0444,"dy":0.0017,"dx":0.0017,"nx":28,"ny":28,"refTime":"2024-04-07T21:00:00:Z","depth":0,"parameterNumber":3,"parameterNumberName":"V-component_of_WINDS"},"data":[0,0,0,0,0,0,0,0,0,0,0,0,0,0,0,0,0,0,0,0,0,0,0,0,0,0,0,0,0,0,0,0,0,0,0,0,0,0,0,0,0,0,0,0,0,0,0,0,0,0,0,0,0,0,0,0,0,0,2.7747,2.7748,0,2.7804,2.7805,2.7805,2.7812,2.7811,2.7811,2.781,2.7865,2.7867,2.7868,0,0,0,0,0,0,0,0,0,0,0,0,0,2.7643,2.7645,2.7747,2.7748,2.7749,2.7804,2.7805,2.7806,2.7812,2.7811,2.7811,2.781,2.7864,2.7866,2.7869,0,0,0,0,0,0,0,0,0,0,0,0,0,2.7693,2.7645,2.7747,2.7759,2.776,2.7804,2.7805,2.7806,2.7812,2.7811,2.781,2.781,2.7863,2.7866,2.7869,2.7904,0,0,2.7878,2.7879,0,0,0,0,0,0,0,0,2.769,2.7697,2.7756,2.7758,2.776,2.78,2.7788,2.7838,2.7812,2.7792,2.781,2.7809,2.7844,2.7848,2.786,2.7906,2.7909,2.7878,2.788,2.7881,2.7882,0,0,0,0,0,0,0,2.7686,2.7694,2.777,2.7757,2.7759,2.7761,2.7767,2.7798,2.7822,2.7794,2.7795,2.7801,2.7844,2.7858,2.7862,2.791,2.7878,2.7881,2.7883,2.7884,2.7989,2.799,0,0,0,0,0,0,2.7681,2.7691,2.7768,2.7771,2.7722,2.7763,2.777,2.7788,2.7821,2.7826,2.7802,2.7801,2.7853,2.7858,2.7864,2.7908,2.7881,2.7884,2.7886,2.7988,2.7989,2.799,0,0,0,0,0,0,2.7679,2.7688,2.7766,2.7732,2.7742,2.7766,2.7786,2.7789,2.7803,2.7828,2.7832,2.7811,2.7853,2.786,2.7895,2.791,2.7885,2.7888,2.7987,2.7988,2.799,2.7996,0,0,0,0,0,0,2.7676,2.7687,2.7701,2.7732,2.7743,2.7796,2.7787,2.7791,2.7808,2.7808,2.7837,2.7841,2.7852,2.789,2.7898,2.7914,2.789,2.7986,2.7988,2.7989,2.7995,2.7998,2.8,0,0,0,0,0,2.7672,2.7699,2.7701,2.7711,2.7761,2.7797,2.7803,2.7816,2.7809,2.7823,2.784,2.784,2.7907,2.7894,2.7902,2.7919,2.7985,2.7987,2.7989,2.7993,2.7997,2.8,0,0,0,0,0,0,2.7667,2.7703,2.7706,2.7744,2.7768,2.7798,2.7816,2.782,2.7845,2.7843,2.7858,2.7864,2.7899,2.7912,2.7897,2.7956,2.7945,2.7949,2.7945,2.7949,2.7952,2.7948,2.7893,0,0,0,0,0,2.7671,2.7698,2.7727,2.7758,2.777,2.7791,2.7807,2.7815,2.784,2.7849,2.7868,2.7891,2.7917,2.7934,2.7959,2.7997,2.8004,2.8013,2.8016,2.8018,2.8021,2.8044,2.8049,2.7998,2.7998,2.7998,0,0,2.7678,2.7701,2.7716,2.7757,2.7777,2.7804,2.7799,2.7827,2.7848,2.7853,2.7888,2.7903,2.7929,2.7966,2.7983,2.7979,2.8037,2.8021,2.8023,2.8025,2.8047,2.8051,2.8056,2.8,2.7999,2.7999,0,0,2.7705,2.7725,2.7753,2.7773,2.7803,2.7818,2.7825,2.7855,2.7866,2.7901,2.7907,2.7931,2.7975,2.7995,2.801,2.8048,2.805,2.8056,2.807,2.8092,2.8096,2.8099,2.8114,2.8118,2.8059,2.8059,2.8059,0,2.7709,2.7751,2.7767,2.7796,2.7815,2.7823,2.7852,2.787,2.7907,2.7919,2.7914,2.7972,2.799,2.8032,2.8042,2.8054,2.8062,2.8052,2.8094,2.8098,2.8102,2.8115,2.812,2.8059,2.8059,2.8059,2.8059,0,2.7756,2.7785,2.7805,2.7842,2.7862,2.7891,2.7911,2.793,2.7937,2.7952,2.7989,2.8012,2.8043,2.8054,2.806,2.8098,2.8094,2.8091,2.8081,2.8107,2.812,2.8125,2.806,2.806,2.806,2.806,0,0,2.7779,2.7827,2.7834,2.7852,2.7887,2.7909,2.7939,2.7971,2.7988,2.8013,2.8038,2.8078,2.8076,2.8094,2.8103,2.8122,2.8152,2.8117,2.8118,2.8123,2.8196,2.8198,2.8203,2.8154,2.8155,2.8155,2.8194,0,2.781,2.7865,2.7881,2.7927,2.7955,2.7965,2.7991,2.8015,2.8031,2.8056,2.8072,2.81,2.8096,2.8107,2.8126,2.8144,2.8166,2.8141,2.8177,2.8178,2.817,2.821,2.8212,2.8246,2.8199,2.8199,2.82,0,2.7854,2.7882,2.7931,2.7965,2.7978,2.8001,2.8033,2.8057,2.8085,2.8095,2.8117,2.8125,2.8156,2.8145,2.8189,2.8172,2.8188,2.8199,2.82,2.8204,2.819,2.8215,2.8258,2.8263,2.8208,2.8208,2.8207,0,2.7867,2.7917,2.7954,2.7969,2.8009,2.8025,2.8042,2.807,2.8089,2.8117,2.813,2.816,2.8176,2.82,2.8216,2.8206,2.8259,2.8249,2.8268,2.8268,2.8278,2.8277,2.8324,2.8288,2.8288,2.8288,2.8288,0,2.79,2.793,2.7961,2.7983,2.8017,2.8036,2.8069,2.8086,2.8111,2.8137,2.8147,2.8171,2.8191,2.8217,2.823,2.8265,2.8272,2.8281,2.8284,2.828,2.8279,2.8291,2.8289,2.8289,2.8289,2.8289,2.8288,0,2.792,2.7942,2.7982,2.8018,2.8028,2.8052,2.8082,2.8104,2.8121,2.8153,2.8162,2.8188,2.822,2.8239,2.8278,2.8287,2.8326,2.8328,2.8317,2.8319,2.8337,2.8335,2.8393,2.8402,2.836,2.836,2.8361,0,2.7939,2.7963,2.8002,2.8022,2.804,2.8069,2.809,2.811,2.813,2.8166,2.8184,2.8217,2.8245,2.8295,2.8317,2.8348,2.8351,2.8369,2.8355,2.8351,2.8352,2.835,2.8353,2.8371,2.8371,2.8372,2.8372,0,2.7973,2.7983,2.8013,2.8047,2.8072,2.8099,2.8126,2.8141,2.8165,2.8188,2.8222,2.8244,2.8286,2.8319,2.8352,2.8369,2.8375,2.8376,2.8383,2.8379,2.8372,2.8377,2.8324,2.8375,2.8374,2.8374,2.8374,2.8374,2.7993,2.8016,2.8048,2.8081,2.8104,2.813,2.8153,2.8174,2.8203,2.824,2.825,2.8286,2.8315,2.8361,2.8379,2.8407,2.8404,2.8413,2.8415,2.8417,2.8418,2.8368,2.8413,2.8413,2.8413,2.8413,2.8413,0,2.8027,2.8049,2.808,2.8119,2.8146,2.8151,2.8182,2.8203,2.8235,2.8263,2.8291,2.833,2.8363,2.8388,2.8422,2.844,2.8443,2.8448,2.8446,2.8451,2.8418,2.841,2.8445,2.8445,2.8444,2.8444,2.8444,2.8444,2.8048,2.8087,2.8102,2.8152,2.8173,2.821,2.8228,2.8252,2.8274,2.8319,2.8347,2.8364,2.8391,2.8427,2.8457,2.8463,2.8475,2.848,2.8487,2.8456,2.8453,2.8449,2.8442,2.8482,2.8482,2.8517,2.8517,2.8517]}]]